Regional Weather Roundup
Issued by NWS

Home | Current Version | Previous Version | Graphics & Text | Print | Product List | Glossary On
Versions: 1 2 3 4 5 6 7 8 9 10 11 12 13 14 15 16 17 18 19 20 21 22 23 24 25 26 27 28 29 30 31 32 33 34 35 36 37 38 39 40 41 42 43 44 45 46 47 48 49 50
000
ASUS43 KDTX 300301
RWRMI
MICHIGAN HOURLY REGIONAL WEATHER ROUNDUP
NATIONAL WEATHER SERVICE DETROIT/PONTIAC MI
1100 PM EDT FRI JUL 29 2016

NOTE: "FAIR" INDICATES FEW OR NO CLOUDS BELOW 12,000 FEET WITH NO
SIGNIFICANT WEATHER AND/OR OBSTRUCTION TO VISIBILITY.

MIZ047>049-052>055-059>063-066>070-074>076-081>083-300400-
SOUTHEAST LOWER MICHIGAN

CITY           SKY/WX    TMP DP  RH WIND       PRES   REMARKS
ADRIAN         LGT RAIN  71  67  87 E7        29.98S
ALMA           CLOUDY    66  61  82 N6        30.04S
ANN ARBOR      CLOUDY    72  59  63 NE8       29.98S
BAD AXE        CLOUDY    65  58  77 NE6       30.04S
CARO           CLOUDY    65  59  79 CALM      30.03S
DETROIT CITY   CLOUDY    71  57  61 NE9       29.99S
DETROIT        CLOUDY    73  56  54 NE8       29.99R
FLINT          CLOUDY    71  55  56 E13       30.02R
GROSSE ILE     CLOUDY    72  62  70 NE9G17    29.97S
HILLSDALE      RAIN      69  65  87 E5        29.98F
HOWELL         PTCLDY    68  56  64 NE7       30.00F

CITY           SKY/WX    TMP DP  RH WIND       PRES   REMARKS
JACKSON        MOCLDY    70  60  70 NE8       29.99S
LAMBERTVILLE   DRIZZLE   73  68  84 NE3       29.97S
LANSING        MOCLDY    68  57  68 NE8       30.01R
LAPEER         FAIR      65  56  72 CALM      30.03S
MASON          MOCLDY    67  57  70 N5        30.00S
MONROE         MOCLDY    72  64  76 NE8       29.96S
MT. CLEMENS    CLOUDY    69  60  73 N8        29.97F
PONTIAC        PTCLDY    68  55  63 NE8       30.00S
PORT HOPE        N/A     71  61  70 NE18      30.03R
PORT HURON     CLOUDY    66  61  82 CALM      30.00S
TRI CITIES     PTCLDY    67  58  72 E5        30.04R
MIDLAND        FAIR      63  57  80 N3        30.04S
TROY           CLOUDY    72  53  52 N7        30.02S
SAGINAW HB     MOCLDY    64  59  82 N5        30.03S
$$
MIZ043>046-050>051-056>058-064>065-071>073-077>080-300400-
SOUTHWEST LOWER MICHIGAN

CITY           SKY/WX    TMP DP  RH WIND       PRES   REMARKS
BATTLE CREEK   CLOUDY    69  60  73 NE9       29.99R
BENTON HARBOR  CLOUDY    69  65  86 NE5       29.96R
BIG RAPIDS     CLOUDY    66  61  83 E6        30.04S
COLDWATER      RAIN      70  69  95 E6        29.99R
FREMONT        FAIR      68  59  73 E8        30.02R
HOLLAND        LGT RAIN  70  60  70 E10       30.00R
GRAND RAPIDS   CLOUDY    69  56  62 NE10      30.01R
IONIA          RAIN      66  57  71 NE8       30.01S
KALAMAZOO      CLOUDY    71  60  68 NE6       29.98R
LUDINGTON      MOCLDY    66  64  94 CALM      30.02S
MARSHALL       CLOUDY    72  59  65 NE5       29.98S
MOUNT PLEASANT MOCLDY    64  56  75 NE5       30.04S
MUSKEGON       CLOUDY    71  55  56 E9        30.00S
SOUTH HAVEN    CLOUDY    68  65  90 NE7       29.97S
$$
MIZ016>042-300400-
NORTHERN LOWER MICHIGAN

CITY           SKY/WX    TMP DP  RH WIND       PRES   REMARKS
ALPENA         CLOUDY    59  54  83 CALM      30.08S
BEAVER ISLAND  CLEAR     60  57  87 CALM      30.07S
BELLAIRE       CLEAR     62  52  70 CALM      30.06R
CADILLAC       CLOUDY    65  55  70 E8        30.07R
CHARLEVOIX     CLEAR     69  51  52 SE7       30.09R
FRANKFORT      CLOUDY    70  55  60 NE5       30.03S
GAYLORD        CLOUDY    65  50  58 CALM      30.09R
GRAYLING       CLOUDY    61  50  65 NE3       30.09R
HARBOR SPRINGS CLEAR     64  53  68 NE3       30.07R
HOUGHTON LAKE  CLOUDY    61  52  72 CALM      30.08R
MANISTEE       PTCLDY    67  57  70 E5        30.02R
OSCODA         PTCLDY    61  55  80 NW5       30.06R
PELLSTON       CLEAR     56  52  86 CALM      30.08R
ROGERS CITY    CLEAR     65  54  65 SE5       30.09S
TRAVERSE CITY  CLOUDY    72  49  44 E9        30.04R
$$
MIZ007>008-015-300400-
EASTERN UPPER MICHIGAN

CITY           SKY/WX    TMP DP  RH WIND       PRES   REMARKS
KINROSS        CLEAR     61  53  75 W3        30.08S
MACKINAC ISLAN PTCLDY    61  56  84 NE6       30.08S
S. S. MARIE    CLEAR     63  55  75 W3        30.07S
$$
MIZ004>006-011>014-085-300400-
CENTRAL UPPER MICHIGAN

CITY           SKY/WX    TMP DP  RH WIND       PRES   REMARKS
MANISTIQUE     CLEAR     58  55  89 N5        30.07S
ESCANABA       CLEAR     57  52  82 NE3       30.05F
MENOMINEE      CLEAR    N/A N/A N/A MISG        N/A
$$
MIZ001>003-009>011-084-300400-
WESTERN UPPER MICHIGAN

CITY           SKY/WX    TMP DP  RH WIND       PRES   REMARKS
IRON MOUNTAIN  CLEAR     61  53  75 CALM      30.07R
HOUGHTON       CLEAR     55  49  80 E5        30.08S
COPPER HARBOR    N/A     60  53  77 SW3       30.08R
IRONWOOD       CLEAR     59  55  88 CALM      30.06S
$$

ABBREVIATIONS USED IN REMARKS
   TC - TEMPERATURE IN CELSIUS
  WCI - WIND CHILL INDEX
   HX - HEAT INDEX
  VSB - VISIBILITY





USA.gov is the U.S. government's official web portal to all federal, state and local government web resources and services.